Weather History for Grand Marais Airport, MN

Change the Weather History Date:

Monday, January 21, 2013

  Actual Average Record
Temperature  
Mean Temperature -20 °F -  
Max Temperature -14 °F 13 °F 26 °F (1997)
Min Temperature -25 °F 0 °F -27 °F (2011)
Degree Days  
Heating Degree Days 84    
Moisture  
Dew Point -31 °F    
Average Humidity 60    
Maximum Humidity 70    
Minimum Humidity 52    
Precipitation  
Precipitation 0.00 in - - ()
Sea Level Pressure  
Sea Level Pressure 29.95 in    
Wind  
Wind Speed 10 mph (WNW)    
Max Wind Speed 17 mph    
Max Gust Speed 29 mph    
Visibility 7 miles    
Events      
Averages and records for this station are not official NWS values.
T = Trace of Precipitation, MM = Missing Value Source: NWS Daily Summary

Daily Weather History Graph

Daily Weather History Graph

Search for Another Location

Airport:

Trip Planner

Search our weather history database for the weather conditions in past years. The results will help you decide how hot, cold, wet, or windy it might be!

Date:

Astronomy

Jan. 21, 2013 Rise Set
Actual Time 7:40 AM CST 4:45 PM CST
Civil Twilight 7:06 AM CST 5:19 PM CST
Nautical Twilight 6:28 AM CST 5:57 PM CST
Astronomical Twilight 5:51 AM CST 6:34 PM CST
Moon 12:23 PM CST (1/21) 3:10 AM CST (1/21)
Length of Visible Light 10h 13m
Length of Day
9h 04m
Waxing Gibbous, 75% of the Moon is Illuminated
Jan 21
Waxing Gibbous
Jan 26
Full
Feb 3
Last Quarter
Feb 10
New
Feb 17
First Quarter

Hourly Weather History & Observations

Time (CST) Temp. Windchill Dew Point Humidity Pressure Visibility Wind Dir Wind Speed Gust Speed Precip Events Conditions
12:14 AM -14.8 °F -30.8 °F -22.0 °F 70% 29.94 in 5.0 mi WNW 6.9 mph - N/A   Haze
12:34 AM -14.8 °F -32.2 °F -23.8 °F 64% 29.94 in 7.0 mi WNW 8.1 mph - N/A   Scattered Clouds
1:33 AM -16.6 °F -35.7 °F -23.8 °F 70% 29.93 in 10.0 mi WNW 9.2 mph - N/A   Overcast
1:53 AM -16.6 °F -34.4 °F -23.8 °F 70% 29.93 in 10.0 mi WNW 8.1 mph - N/A   Overcast
2:13 AM -16.6 °F -35.7 °F -23.8 °F 70% 29.93 in 10.0 mi WNW 9.2 mph 16.1 mph N/A   Overcast
2:34 AM -16.6 °F -32.9 °F -25.6 °F 64% 29.93 in 10.0 mi WNW 6.9 mph - N/A   Scattered Clouds
2:54 AM -16.6 °F -34.4 °F -25.6 °F 64% 29.93 in 10.0 mi WNW 8.1 mph - N/A   Scattered Clouds
3:13 AM -16.6 °F -35.7 °F -25.6 °F 64% 29.92 in 10.0 mi WNW 9.2 mph - N/A   Clear
3:34 AM -18.4 °F -35.1 °F -27.4 °F 63% 29.92 in 10.0 mi WNW 6.9 mph - N/A   Clear
3:54 AM -18.4 °F -33.4 °F -27.4 °F 63% 29.92 in 10.0 mi WNW 5.8 mph - N/A   Clear
4:34 AM -20.2 °F -38.8 °F -27.4 °F 69% 29.91 in 10.0 mi WNW 8.1 mph 17.3 mph N/A   Clear
4:54 AM -20.2 °F -40.1 °F -29.2 °F 63% 29.92 in 7.0 mi West 9.2 mph 18.4 mph N/A   Clear
5:14 AM -20.2 °F -40.1 °F -29.2 °F 63% 29.91 in 7.0 mi WNW 9.2 mph 16.1 mph N/A   Clear
5:34 AM -22.0 °F -41.0 °F -31.0 °F 63% 29.92 in 5.0 mi WNW 8.1 mph 19.6 mph N/A   Haze
5:54 AM -22.0 °F -42.3 °F -32.8 °F 57% 29.92 in 7.0 mi WNW 9.2 mph 16.1 mph N/A   Scattered Clouds
6:13 AM -23.8 °F -48.9 °F -32.8 °F 63% 29.92 in 3.0 mi WNW 13.8 mph 21.9 mph N/A   Haze
6:33 AM -23.8 °F -46.9 °F -32.8 °F 63% 29.93 in 2.0 mi WNW 11.5 mph 18.4 mph N/A   Haze
6:54 AM -23.8 °F -46.9 °F -32.8 °F 63% 29.93 in 3.0 mi WNW 11.5 mph 20.7 mph N/A   Haze
7:13 AM -23.8 °F -44.5 °F -32.8 °F 63% 29.93 in 4.0 mi WNW 9.2 mph 19.6 mph N/A   Haze
7:34 AM -23.8 °F -49.8 °F -34.6 °F 57% 29.93 in 5.0 mi WNW 15.0 mph 20.7 mph N/A   Haze
7:54 AM -25.6 °F -46.8 °F -34.6 °F 63% 29.94 in 10.0 mi NW 9.2 mph - N/A   Clear
8:13 AM -25.6 °F -48.0 °F -36.4 °F 57% 29.95 in 10.0 mi WNW 10.4 mph - N/A   Clear
8:33 AM -25.6 °F -45.4 °F -36.4 °F 57% 29.94 in 7.0 mi NW 8.1 mph 16.1 mph N/A   Clear
8:54 AM -25.6 °F -43.8 °F -36.4 °F 57% 29.94 in 3.0 mi NW 6.9 mph 17.3 mph N/A   Haze
9:14 AM -25.6 °F -52.1 °F -36.4 °F 57% 29.93 in 3.0 mi NW 15.0 mph 21.9 mph N/A   Haze
9:34 AM -25.6 °F -53.0 °F -36.4 °F 57% 29.93 in 5.0 mi WNW 16.1 mph 28.8 mph N/A   Haze
9:54 AM -25.6 °F -53.8 °F -36.4 °F 57% 29.94 in 5.0 mi NW 17.3 mph 27.6 mph N/A   Haze
10:14 AM -23.8 °F -49.8 °F -36.4 °F 52% 29.95 in 4.0 mi NW 15.0 mph 24.2 mph N/A   Haze
10:33 AM -23.8 °F -48.0 °F -36.4 °F 52% 29.96 in 4.0 mi WNW 12.7 mph 20.7 mph N/A   Haze
10:53 AM -23.8 °F -46.9 °F -34.6 °F 57% 29.95 in 1.5 mi NW 11.5 mph 20.7 mph N/A   Haze
11:13 AM -23.8 °F -48.0 °F -36.4 °F 52% 29.94 in 4.0 mi WNW 12.7 mph 24.2 mph N/A   Haze
11:34 AM -23.8 °F -48.9 °F -34.6 °F 57% 29.93 in 5.0 mi NW 13.8 mph 23.0 mph N/A   Haze
11:54 AM -23.8 °F -51.5 °F -34.6 °F 57% 29.93 in 5.0 mi NW 17.3 mph 28.8 mph N/A   Haze
12:13 PM -23.8 °F -49.8 °F -34.6 °F 57% 29.92 in 5.0 mi NW 15.0 mph 25.3 mph N/A   Haze
12:34 PM -22.0 °F -47.5 °F -34.6 °F 52% 29.92 in 4.0 mi WNW 15.0 mph 26.5 mph N/A   Haze
12:53 PM -22.0 °F -45.7 °F -34.6 °F 52% 29.92 in 5.0 mi WNW 12.7 mph 27.6 mph N/A   Haze
1:13 PM -22.0 °F -45.7 °F -34.6 °F 52% 29.93 in 7.0 mi WNW 12.7 mph 23.0 mph N/A   Scattered Clouds
1:34 PM -20.2 °F -38.8 °F -32.8 °F 52% 29.94 in 1.8 mi WNW 8.1 mph - N/A   Haze
1:54 PM -20.2 °F -42.4 °F -32.8 °F 52% 29.94 in 2.0 mi WNW 11.5 mph 18.4 mph N/A   Haze
2:13 PM -20.2 °F -42.4 °F -32.8 °F 52% 29.94 in 2.5 mi WNW 11.5 mph 24.2 mph N/A   Haze
2:33 PM -20.2 °F -43.4 °F -32.8 °F 52% 29.94 in 4.0 mi WNW 12.7 mph 19.6 mph N/A   Haze
2:53 PM -20.2 °F -42.4 °F -32.8 °F 52% 29.95 in 5.0 mi WNW 11.5 mph 19.6 mph N/A   Haze
3:14 PM -20.2 °F -40.1 °F -32.8 °F 52% 29.95 in 7.0 mi WNW 9.2 mph - N/A   Clear
3:34 PM -20.2 °F -35.5 °F -31.0 °F 58% 29.96 in 3.0 mi WNW 5.8 mph 17.3 mph N/A   Haze
3:53 PM -20.2 °F -41.3 °F -32.8 °F 52% 29.97 in 10.0 mi WNW 10.4 mph 18.4 mph N/A   Scattered Clouds
4:14 PM -20.2 °F -35.5 °F -32.8 °F 52% 29.97 in 5.0 mi West 5.8 mph - N/A   Haze
4:33 PM -20.2 °F -40.1 °F -29.2 °F 63% 29.97 in 2.5 mi WNW 9.2 mph - N/A   Haze
4:54 PM -20.2 °F -35.5 °F -32.8 °F 52% 29.98 in 10.0 mi WNW 5.8 mph - N/A   Scattered Clouds
5:14 PM -20.2 °F -37.3 °F -31.0 °F 58% 29.98 in 4.0 mi WNW 6.9 mph - N/A   Haze
5:33 PM -20.2 °F -33.5 °F -31.0 °F 58% 29.98 in 7.0 mi WNW 4.6 mph - N/A   Scattered Clouds
5:54 PM -22.0 °F -42.3 °F -31.0 °F 63% 29.98 in 7.0 mi WNW 9.2 mph - N/A   Clear
6:14 PM -22.0 °F -37.7 °F -31.0 °F 63% 29.98 in 10.0 mi WNW 5.8 mph - N/A   Clear
6:54 PM -22.0 °F -41.0 °F -32.8 °F 57% 29.98 in 10.0 mi NW 8.1 mph - N/A   Scattered Clouds
7:14 PM -23.8 °F -43.2 °F -32.8 °F 63% 29.98 in 10.0 mi NW 8.1 mph - N/A   Clear
7:33 PM -22.0 °F -44.7 °F -32.8 °F 57% 29.98 in 10.0 mi NW 11.5 mph 17.3 mph N/A   Clear
7:54 PM -22.0 °F -42.3 °F -32.8 °F 57% 29.99 in 10.0 mi NW 9.2 mph - N/A   Scattered Clouds
8:14 PM -22.0 °F -42.3 °F -32.8 °F 57% 29.99 in 10.0 mi NW 9.2 mph - N/A   Scattered Clouds
8:33 PM -22.0 °F -39.4 °F -31.0 °F 63% 29.99 in 10.0 mi WNW 6.9 mph - N/A   Scattered Clouds
8:54 PM -22.0 °F -43.6 °F -31.0 °F 63% 29.98 in 10.0 mi WNW 10.4 mph 18.4 mph N/A   Scattered Clouds
9:14 PM -20.2 °F -40.1 °F -29.2 °F 63% 29.98 in 10.0 mi NW 9.2 mph 16.1 mph N/A   Overcast
9:33 PM -20.2 °F -38.8 °F -29.2 °F 63% 29.98 in 10.0 mi WNW 8.1 mph 17.3 mph N/A   Overcast
9:54 PM -20.2 °F -43.4 °F -29.2 °F 63% 29.99 in 10.0 mi WNW 12.7 mph 19.6 mph N/A   Overcast
10:14 PM -20.2 °F -45.2 °F -29.2 °F 63% 29.98 in 10.0 mi WNW 15.0 mph 25.3 mph N/A   Overcast
10:34 PM -20.2 °F -44.4 °F -29.2 °F 63% 29.98 in 10.0 mi WNW 13.8 mph 20.7 mph N/A   Overcast
10:54 PM -20.2 °F -44.4 °F -29.2 °F 63% 29.98 in 10.0 mi WNW 13.8 mph 21.9 mph N/A   Overcast
11:13 PM -20.2 °F -44.4 °F -29.2 °F 63% 29.98 in 7.0 mi NW 13.8 mph 23.0 mph N/A   Overcast
11:34 PM -20.2 °F -44.4 °F -29.2 °F 63% 29.98 in 10.0 mi WNW 13.8 mph 21.9 mph N/A   Overcast
11:53 PM -20.2 °F -43.4 °F -29.2 °F 63% 29.98 in 10.0 mi WNW 12.7 mph 21.9 mph N/A   Overcast